Torna al catalogo

STARLINK-36065

AttivoComunicazioniVLEO
NORAD 66898·PAYLOAD·🇺🇸 United States

Lanciato Dec 4, 2025 da Vandenberg Space Force Base

Loading…

Prossimi Passaggi (prossime 24 ore)

TLE

AggiornatoSource: CelesTrak SupGP

Epoca: Sep 14, 2026, 22:58 UTC

1 66898C 25283W   26257.95743056  .00003479  00000+0  10275-3 0  2575
2 66898  53.1579 221.2704 0001425 101.6460 308.4165 15.34397439    13

Traccia STARLINK-36065 in tempo reale con AllMySat

Download on the App Store